This demonstration page uses our WeatherBlox Daily Observations layout. Learn more.

Left ArrowRight Arrow

Hourly Observations for July 19, 2018

Temp ( °F °C ) Dew Point ( °F °C ) Humidity (%) Winds ( mph kmh ) Pressure ( in mb ) Visibility ( mi km ) Precip ( " mm )
12:15 am 00:15 Clear 74 23.2 71 21.6 91 91 SSE 12 19 29.83 1010 10 16 N/A
12:35 am 00:35 Clear 73 22.7 69 20.5 87 87 SSE 13 20 29.85 1011 10 16 N/A
12:55 am 00:55 Clear 72 22 67 19.7 87 87 S 12 19 29.85 1011 10 16 N/A
1:15 am 01:15 Clear 71 21.8 67 19.5 87 87 S 12 19 29.85 1011 10 16 N/A
1:35 am 01:35 Clear 72 22 67 19.6 86 86 S 10 17 29.85 1011 10 16 N/A
1:55 am 01:55 Clear 72 22.1 67 19.3 84 84 S 10 17 29.85 1011 10 16 N/A
2:15 am 02:15 Clear 72 22.3 67 19.2 83 83 SSW 10 17 29.83 1010 10 16 N/A
2:35 am 02:35 Clear 72 22.3 67 19.2 83 83 S 14 22 29.83 1010 10 16 N/A
2:55 am 02:55 Clear 72 22.2 66 19.1 83 83 SSW 13 20 29.83 1010 10 16 N/A
3:15 am 03:15 Clear 72 22.3 67 19.2 83 83 SSW 10 17 29.83 1010 10 16 N/A
3:35 am 03:35 Clear 72 22.3 67 19.5 84 84 SSW 7 11 29.83 1010 10 16 N/A
3:55 am 03:55 Clear 73 22.5 68 19.8 85 85 SW 7 11 29.80 1009 10 16 N/A
4:15 am 04:15 Clear 72 22.1 68 19.8 87 87 W 5 7 29.83 1010 10 16 N/A
4:35 am 04:35 Clear 71 21.5 67 19.7 90 90 W 6 9 29.83 1010 10 16 N/A
4:55 am 04:55 Clear 70 21.2 68 19.8 92 92 NNW 8 13 29.83 1010 10 16 N/A
5:15 am 05:15 Clear 70 21 67 19.7 92 92 NW 5 7 29.83 1010 7 11 N/A
5:35 am 05:35 Clear 69 20.5 67 19.5 94 94 WSW 6 9 29.83 1010 7 11 N/A
5:55 am 05:55 Clear with Mist and Fog 69 20.5 67 19.5 94 94 WSW 3 6 29.83 1010 5 8 N/A
6:15 am 06:15 Clear with Mist and Fog 69 20.5 67 19.5 94 94 WSW 3 6 29.83 1010 5 8 N/A
6:35 am 06:35 Sunny with Mist and Fog 69 20.5 67 19.6 95 95 N N/A 29.83 1010 4 6 N/A
6:55 am 06:55 Sunny with Mist and Fog 69 20.5 67 19.6 95 95 N N/A 29.83 1010 4 6 N/A
7:15 am 07:15 Sunny with Mist and Fog 68 20.2 67 19.4 95 95 NNW 3 6 29.83 1010 2 3 N/A
7:35 am 07:35 Sunny with Mist and Fog 69 20.8 68 20 95 95 NNW 5 7 29.83 1010 3 4 N/A
7:55 am 07:55 Partly Cloudy with Mist and Fog 71 21.4 69 20.5 95 95 NNW 5 7 29.85 1011 3 5 N/A
8:15 am 08:15 Cloudy with Fog 71 21.7 70 21 96 96 NNW 3 6 29.85 1011 1 1 N/A
8:35 am 08:35 Mostly Cloudy with Mist and Fog 73 22.5 71 21.7 95 95 NW 3 6 29.85 1011 5 8 N/A
8:55 am 08:55 Sunny 75 23.9 71 21.8 88 88 NNW 6 9 29.83 1010 10 16 N/A
9:15 am 09:15 Sunny 76 24.5 71 21.4 83 83 N 9 15 29.83 1010 10 16 N/A
9:35 am 09:35 Sunny 78 25.6 70 21 76 76 N 7 11 29.83 1010 10 16 N/A
9:55 am 09:55 Sunny 78 25.7 67 19.5 69 69 NNE 9 15 29.83 1010 10 16 N/A
10:15 am 10:15 Sunny 80 26.5 68 19.8 67 67 NNW 7 11 29.80 1009 10 16 N/A
10:35 am 10:35 Sunny 81 27 67 19.3 63 63 N 9 15 29.80 1009 10 16 N/A
10:55 am 10:55 Sunny 82 27.6 66 19.1 60 60 N 8 13 29.80 1009 10 16 N/A
11:15 am 11:15 Sunny 82 28 66 18.7 57 57 NNW 3 6 29.80 1009 10 16 N/A
11:35 am 11:35 Sunny 83 28.5 66 19 56 56 N 5 7 29.80 1009 10 16 N/A
11:55 am 11:55 Sunny 84 28.9 67 19.3 56 56 NE 3 6 29.80 1009 10 16 N/A
12:15 pm 12:15 Sunny 85 29.2 66 19.1 55 55 NE 6 9 29.80 1009 10 16 N/A
12:35 pm 12:35 Sunny 85 29.5 67 19.5 55 55 ENE 9 15 29.80 1009 10 16 N/A
12:55 pm 12:55 Sunny 84 29.1 66 18.7 53 53 NE 6 9 29.80 1009 10 16 N/A
1:15 pm 13:15 Sunny 85 29.5 65 18.5 52 52 NE 7 11 29.80 1009 10 16 N/A
1:35 pm 13:35 Sunny 85 29.6 64 18 50 50 ENE 5 7 29.77 1008 10 16 N/A
1:55 pm 13:55 Sunny 85 29.7 63 17 46 46 N N/A 29.74 1007 10 16 N/A
2:15 pm 14:15 Sunny 87 30.4 66 19 51 51 SW 3 6 29.74 1007 10 16 N/A
2:35 pm 14:35 Sunny 87 30.6 66 19 50 50 W 3 6 29.74 1007 10 16 N/A
2:55 pm 14:55 Sunny 87 30.6 64 17.9 47 47 N N/A 29.74 1007 10 16 N/A
3:15 pm 15:15 Sunny 88 31 64 17.8 45 45 N N/A 29.74 1007 10 16 N/A
3:35 pm 15:35 Sunny 88 31 66 19.1 49 49 N N/A 29.74 1007 10 16 N/A
3:55 pm 15:55 Sunny 89 31.8 68 19.9 49 49 SW 5 7 29.74 1007 10 16 N/A
4:15 pm 16:15 Sunny 89 31.6 65 18.3 45 45 N N/A 29.74 1007 10 16 N/A
4:35 pm 16:35 Sunny 89 31.7 65 18.4 45 45 N N/A 29.74 1007 10 16 N/A
4:55 pm 16:55 Sunny 89 31.7 65 18.3 45 45 N N/A 29.74 1007 10 16 N/A
5:15 pm 17:15 Sunny 90 32.3 66 18.8 45 45 S 3 6 29.74 1007 10 16 N/A
5:35 pm 17:35 Sunny 90 32.1 64 17.9 43 43 N N/A 29.74 1007 10 16 N/A
5:55 pm 17:55 Sunny 90 32.2 64 18 43 43 N N/A 29.74 1007 10 16 N/A
6:15 pm 18:15 Sunny 90 32.1 65 18.5 44 44 N N/A 29.74 1007 10 16 N/A
6:35 pm 18:35 Sunny 89 31.9 67 19.7 48 48 SSW 3 6 29.71 1006 10 16 N/A
6:55 pm 18:55 Sunny 88 31.3 69 20.6 53 53 S 7 11 29.71 1006 10 16 N/A
7:15 pm 19:15 Sunny 87 30.7 71 21.5 58 58 S 6 9 29.71 1006 10 16 N/A
7:35 pm 19:35 Sunny with Nearby Thunderstorms 87 30.5 70 21 57 57 SSE 8 13 29.71 1006 10 16 N/A
7:55 pm 19:55 Mostly Cloudy 86 30.2 71 21.5 60 60 E 6 9 29.74 1007 10 16 N/A
8:15 pm 20:15 Partly Cloudy 82 27.6 69 20.8 67 67 E 10 17 29.74 1007 10 16 N/A
8:35 pm 20:35 Sunny 79 26 69 20.3 71 71 E 7 11 29.74 1007 10 16 N/A
8:55 pm 20:55 Sunny 77 24.9 68 20.2 75 75 ENE 6 9 29.80 1009 10 16 N/A
9:15 pm 21:15 Clear 76 24.2 68 19.8 77 77 E 5 7 29.80 1009 10 16 N/A
9:35 pm 21:35 Clear 74 23.5 68 20 81 81 ENE 7 11 29.80 1009 10 16 N/A
9:55 pm 21:55 Clear 74 23.2 68 19.8 81 81 ENE 3 6 29.80 1009 10 16 N/A
10:15 pm 22:15 Clear 73 22.9 68 19.8 83 83 N N/A 29.83 1010 10 16 N/A
10:35 pm 22:35 Clear 73 22.6 67 19.6 83 83 ENE 5 7 29.85 1011 10 16 N/A
10:55 pm 22:55 Clear 73 22.8 67 19.7 83 83 E 3 6 29.83 1010 10 16 N/A
11:15 pm 23:15 Clear 71 21.9 67 19.7 87 87 E 3 6 29.85 1011 10 16 N/A
11:35 pm 23:35 Clear 73 22.5 67 19.7 84 84 E 3 6 29.85 1011 10 16 N/A
11:55 pm 23:55 Clear 71 21.8 67 19.6 87 87 N N/A 29.85 1011 10 16 N/A

Powered by AerisWeather